This demonstration page uses our WeatherBlox Daily Observations layout. Learn more.

Left ArrowRight Arrow

Hourly Observations for July 8, 2016

Temp ( °F °C ) Dew Point ( °F °C ) Humidity (%) Winds ( mph kmh ) Pressure ( in mb ) Visibility ( mi km ) Precip ( " mm )
12:53 am 00:53 Clear 68 20 64 17.8 87 87 ENE 6 9 29.93 1014 10 16 0.00 0.00
1:53 am 01:53 Clear 67 19.4 64 17.8 91 91 NE 7 11 29.92 1013 10 16 0.00 0.00
2:53 am 02:53 Clear 65 18.3 63 17.2 93 93 NE 3 6 29.93 1013 10 16 0.00 0.00
3:53 am 03:53 Clear 65 18.3 63 17.2 93 93 NE 5 7 29.94 1014 10 16 0.00 0.00
4:53 am 04:53 Clear 65 18.3 62 16.7 90 90 Calm 29.97 1015 10 16 0.00 0.00
5:53 am 05:53 Partly Cloudy 64 17.8 61 16.1 90 90 E 3 6 29.98 1015 10 16 0.00 0.00
6:53 am 06:53 Mostly Sunny 65 18.3 62 16.7 90 90 Calm 29.97 1015 10 16 0.00 0.00
7:53 am 07:53 Sunny 66 18.9 63 17.2 90 90 Calm 30.00 1016 10 16 0.00 0.00
8:53 am 08:53 Sunny 69 20.6 64 17.8 84 84 Calm 30.01 1016 10 16 0.00 0.00
9:53 am 09:53 Mostly Sunny 73 22.8 67 19.4 81 81 SSE 5 7 30.01 1016 10 16 0.00 0.00
10:53 am 10:53 Sunny 77 25 63 17.2 62 62 E 5 7 30.01 1016 10 16 0.00 0.00
11:53 am 11:53 Sunny 81 27.2 58 14.4 45 45 ESE 6 9 30.01 1016 10 16 0.00 0.00
12:53 pm 12:53 Sunny 82 27.8 60 15.6 47 47 SE 13 20 30.00 1016 10 16 0.00 0.00
1:53 pm 13:53 Sunny 84 28.9 59 15 43 43 SE 9 15 30.00 1016 10 16 0.00 0.00
2:53 pm 14:53 Sunny 85 29.4 59 15 42 42 ESE 9 15 29.99 1016 10 16 0.00 0.00
3:53 pm 15:53 Sunny 85 29.4 57 13.9 39 39 ESE 5 7 29.98 1015 10 16 0.00 0.00
4:53 pm 16:53 Sunny 84 28.9 61 16.1 46 46 SE 9 15 29.96 1015 10 16 0.00 0.00
5:53 pm 17:53 Sunny 84 28.9 62 16.7 48 48 SE 8 13 29.96 1015 10 16 0.00 0.00
6:53 pm 18:53 Sunny 82 27.8 63 17.2 53 53 SE 10 17 29.95 1014 10 16 0.00 0.00
7:53 pm 19:53 Sunny 80 26.7 64 17.8 58 58 ESE 8 13 29.94 1014 10 16 0.00 0.00
8:53 pm 20:53 Sunny 79 26.1 65 18.3 62 62 ESE 8 13 29.95 1014 10 16 0.00 0.00
9:53 pm 21:53 Clear 77 25 66 18.9 69 69 ESE 9 15 29.96 1015 10 16 0.00 0.00
10:53 pm 22:53 Clear 76 24.4 65 18.3 69 69 ESE 12 19 29.97 1015 10 16 0.00 0.00
11:53 pm 23:53 Clear 73 23 64 18 74 74 ESE 13 20 29.94 1014 10 16 0.00 0.00

Powered by AerisWeather